Voltar ao catálogo

USA 470

AtivoMilitarVLEO
NORAD 62539·PAYLOAD·🇺🇸 United States

Lançado Jan 10, 2025 de Vandenberg Space Force Base

Loading…

Próximas Passagens (próximas 24 horas)

TLE

ObsoletoSource: Mike McCants

Época: Aug 21, 2026, 19:53 UTC

1 62539U 25005H   26233.82916342 0.00000000  00000-0  00000-0 0    01
2 62539  70.0194 237.3194 0002000 176.2445 183.7555 14.96713687    04

Acompanhe USA 470 em tempo real com AllMySat

Download on the App Store